www.pogodaiklimat.ru

Погода и климат >> Архив погоды >> Россия >> Свердловская область >> Екатеринбург


АРХИВ ПОГОДЫ в Екатеринбурге

Время (UTC), дата Ветер
(напр.,м/с)
 
Видим.   Явления Облачность Т
(С)
Тd
(С)
f
(%)
Тe
(С)
Тes
(С)
Комфортность P
(гПа)
Po
(гПа)
Тmin
(С)
Tmax
(С)
R
(мм)
R24
(мм)
S
(см)
09 13.01 Ю 3 10 км слаб. ливневой снег 10/10 600 м
[Cb cap]
-1.7 -5.8 74 -6 -6 тепло 1002.3 967.7
12 13.01 ЮВ 3 10 км слаб. ливневой снег 10/10 600 м
[Cb cap]
-3.0 -6.5 77 -8 -8 тепло 1003.0 968.1
15 13.01 Ю 4 10 км слаб. ливневой снег 8/8 600 м
[Cb cap]
-3.7 -6.6 80 -10 -10 тепло 1003.2 968.2 -1.7 0.2
18 13.01 ЮЗ 2 10 км {ливн. осадки} 9/9 600 м
[Cb calv]
-3.8 -9.1 67 -8 -8 тепло 1004.2 969.2
21 13.01 ЮЗ 4
{10}
10 км 10/0
[Cs]
-4.6 -9.8 67 -11 -11 тепло 1004.9 969.8
00 14.01 ЮЗ 4 10 км 10/0
[Cs]
-6.3 -11.3 68 -13 -13 по сезону 1005.4 970.0
03 14.01 ЮЗ 1 10 км 10/0
[Cc]
-7.7 -12.2 70 -10 -10 тепло 1005.5 970.0 -7.8 0.0 15
06 14.01 ЮЗ 2 10 км 8/0
[Ac As]
-8.2 -12.2 73 -13 -12 по сезону 1006.2 970.6 -8.6
09 14.01 З 2 20 км в посл. час ливневой снег 10/0
[Ac trans Cs]
-7.1 -11.8 69 -11 -11 по сезону 1006.0 970.6
12 14.01 З 2 10 км {ливн. осадки} 8/0
[Cs]
-9.1 -13.0 73 -13 -13 по сезону 1007.5 971.7
15 14.01 З 2 10 км ясно -10.6 -13.7 78 -15 -15 по сезону 1009.5 973.4 -7.1
18 14.01 З 2 10 км 6/6 600 м
[Sc]
-11.1 -13.5 82 -16 -16 по сезону 1011.0 974.8
21 14.01 З 2 10 км 9/9 600 м
[Sc]
-10.4 -13.2 80 -15 -15 по сезону 1012.1 976.0
00 15.01 ЮЗ 1 10 км 9/9 600 м
[Sc]
-11.2 -13.6 82 -13 -13 по сезону 1013.3 977.0
03 15.01 ЮЗ 2 10 км 10/0
[Ci fib]
-12.7 -14.9 84 -17 -17 по сезону 1014.1 977.6 -12.7 15
06 15.01 ЮЗ 1 10 км 10/0
[Cs]
-11.6 -14.6 78 -14 -13 по сезону 1014.9 978.5 -13.0
09 15.01 ЮЗ 2 10 км 10/0
[Cs]
-8.8 -13.7 68 -13 -12 по сезону 1014.1 978.1
12 15.01 Ю 2 10 км 10/0
[Ac und Cc]
-9.0 -12.4 76 -13 -13 по сезону 1014.7 978.7
15 15.01 Ю 2 10 км 10/0
[Ac und]
-9.3 -12.4 78 -14 -14 по сезону 1015.1 979.0 -8.6
18 15.01 Ю 1 10 км 10/0
[Ac As]
-9.8 -12.6 80 -12 -12 по сезону 1015.1 978.9
21 15.01 Ю 2 10 км 10/0
[Ac As]
-8.4 -11.4 79 -13 -13 по сезону 1015.0 979.0
00 16.01 ЮВ 2 10 км слаб. снег 10/0
[Ac As]
-7.5 -10.0 82 -12 -12 по сезону 1015.0 979.1
03 16.01 ЮЗ 3 10 км {снег} 8/4 600 м
[Sc Ac und]
-5.5 -8.7 78 -11 -11 тепло 1014.5 978.9 -9.9 0.3 16
06 16.01 ЮЗ 2 20 км {снег} 9/9 600 м
[Sc]
-4.6 -8.2 76 -9 -9 тепло 1015.5 980.1
09 16.01 ЮЗ 5 50 км 9/9 600 м
[Sc]
-3.1 -7.6 71 -10 -10 тепло 1016.1 980.8
12 16.01 Ю 1 10 км 9/0
[Ac trans Cs]
-3.2 -7.2 74 -5 -5 тепло 1017.1 981.7
15 16.01 Ю 3 10 км 6/6 600 м
[Sc]
-3.8 -7.8 74 -9 -9 тепло 1017.5 982.1 -2.5 0.0
18 16.01 ЮВ 3 10 км ясно -5.3 -8.9 76 -11 -11 тепло 1016.8 981.2
21 16.01 ЮВ 4 10 км 4/0
[Cs]
-4.0 -8.9 69 -10 -10 тепло 1014.4 979.0
00 17.01 Ю 4
{10}
10 км 8/0
[Cs]
-6.3 -12.7 60 -13 -13 по сезону 1013.6 977.9
03 17.01 ЮВ 5 10 км 8/0
[Cs]
-7.0 -13.4 60 -14 -14 по сезону 1011.6 975.9 -7.0 16
06 17.01 ЮВ 3
{11}
20 км 10/8 600 м
[Sc Cs]
-7.8 -12.7 68 -13 -13 по сезону 1010.1 974.4 -7.9
09 17.01 ЮВ 3
{10}
1000 м снег {метель} 10/0
[As op]
-7.9 -10.1 84 -14 -13 по сезону 1009.3 973.6
12 17.01 ЮВ 4 1000 м снег {метель} 10/0
[As op]
-8.0 -10.6 82 -15 -15 по сезону 1008.4 972.7
15 17.01 Ю 3 4000 м слаб. снег {метель} 10/0
[As op]
-7.2 -9.6 83 -13 -13 по сезону 1008.4 972.8 -6.7 2
18 17.01 З 3 4000 м слаб. ливневой снег 9/9 600 м
[Cb cap]
-5.7 -8.7 79 -11 -11 тепло 1009.5 974.1
21 17.01 З 3 10 км {ливн. осадки} 9/9 600 м
[Cb calv]
-5.7 -10.1 71 -11 -11 тепло 1011.3 975.8
00 18.01 З 4
{14}
10 км {ливн. осадки} 3/3 600 м
[Sc]
-7.1 -12.0 68 -14 -14 по сезону 1012.6 976.9
03 18.01 З 3 10 км ясно -8.4 -12.1 75 -14 -14 по сезону 1012.8 976.9 -8.4 0.0 16
06 18.01 ЮЗ 3 10 км 10/0
[Ci fib]
-8.0 -12.1 72 -14 -13 по сезону 1012.4 976.6 -9.0
09 18.01 Ю 3 50 км 10/0
[Cs]
-5.6 -11.8 62 -11 -10 по сезону 1010.5 975.0
12 18.01 ЮЗ 3 20 км 10/0
[Ac As Cs]
-5.2 -12.0 59 -10 -10 по сезону 1008.6 973.3
15 18.01 ЮЗ 5 10 км слаб. снег 10/0
[Ac As]
-5.2 -10.4 67 -12 -12 по сезону 1008.6 973.3 -5.0 0.0
18 18.01 З 4
{11}
10 км {снег} 4/4 1000 м
[Sc]
-6.3 -10.7 71 -13 -13 по сезону 1009.8 974.3
21 18.01 З 4 10 км 8/8 1000 м
[Sc]
-5.7 -9.7 73 -12 -12 по сезону 1011.0 975.5
00 19.01 З 3 10 км 8/8 1000 м
[Sc]
-6.1 -9.4 77 -12 -12 по сезону 1011.1 975.5
03 19.01 Ю 2 10 км ясно -7.7 -10.0 84 -12 -12 по сезону 1011.8 976.1 -7.7 0.0 16
06 19.01 ЮВ 2 10 км 10/0
[Cc]
-7.6 -10.3 81 -12 -11 по сезону 1012.4 976.7 -8.3
09 19.01 Ю 3 20 км 10/3 600 м
[Sc Ac und]
-4.0 -8.1 73 -9 -9 тепло 1011.1 975.9
12 19.01 Ю 3 10 км 10/6 600 м
[Sc Ac As]
-2.9 -7.5 71 -8 -8 тепло 1009.8 974.7
15 19.01 ЮЗ 3 10 км 10/8 600 м
[Sc Ac As]
-1.9 -6.4 71 -7 -7 тепло 1008.7 973.8 -1.9
18 19.01 ЮЗ 3 10 км 10/10 600 м
[Sc]
-2.3 -5.6 78 -7 -7 тепло 1008.9 973.9
21 19.01 ЮЗ 2 10 км слаб. ливневой снег 10/10 600 м
[Cb calv]
-3.2 -6.4 79 -7 -7 тепло 1009.9 974.8
00 20.01 Ю 2 10 км {ливн. осадки} 10/4 600 м
[Cb calv Ac As]
-3.3 -6.5 78 -7 -7 тепло 1009.3 974.2
03 20.01 Ю 1 50 км слаб. ливневой снег 10/10 600 м
[Cb calv]
-3.8 -5.5 88 -6 -6 тепло 1008.4 973.3 -3.8 0.8 17
06 20.01 Ю 1 1000 м сильн. снег {ливн. осадки} 10/0
[As op]
-3.3 -4.7 90 -6 -6 тепло 1007.6 972.5 -3.8

 

Местоположение метеостанции Екатеринбург (Свердловская область, Россия): широта 56.83 долгота 60.63 высота над уровнем моря 281 м.

В архиве по умолчанию представлена погода в Екатеринбурге за последнюю неделю. Архивные данные за месяц целиком и за предыдущие месяцы, начиная с января 2011 года, Вы можете получить, выбрав интересующий диапазон дат из раскрывающегося списка и нажав кнопку "Ввод!".


*Определитесь, кто Вы:
робот инопланетянин человек

Внимание! Время в таблицах - всемирное. Для получения местного времени необходимо прибавить поправку, которая равна 5 ч.

Смотрите также архив погоды в соседних городах и на ближайших метеорологических станциях:

Погода в Екатеринбурге (Бот.сад) (Свердловская область, Россия) (5 км)
Погода в Верхнем Дуброво (Свердловская область, Россия) (29 км)
Погода в Сысерти (Свердловская область, Россия) (38 км)
Погода в Ревде (Свердловская область, Россия) (40 км)
Погода в Мариинске (Свердловская область, Россия) (52 км)
Погода в Невьянске (Свердловская область, Россия) (78 км)
Погода в Верхнем Уфалее (Челябинская область, Россия) (86 км)
Погода в Каменск-Уральском (Свердловская область, Россия) (88 км)
Погода в Бисерти (Свердловская область, Россия) (95 км)
Погода в Артемовском (Свердловская область, Россия) (98 км)

Пояснения к столбцам:

Ветер - указаны скорость ветра в м/с - средняя за 10 мин, порывы в срок и между сроками (в фигурных скобках) и направление, откуда дует ветер: С - северный, СВ - северо-восточный, В - восточный, ЮВ - юго-восточный, Ю - южный, ЮЗ - юго-западный, З - западный, СЗ - северо-западный.
Видимость - горизонтальная дальность видимости в метрах или километрах. При видимости от 1 до 10 км при отсутствии осадков обычно наблюдается дымка, при ухудшении видимости до 1 км и менее - туман. В сухую погоду видимость может ухудшаться дымом, пылью или мглою.
Явления - указаны атмосферные явления, наблюдавшиеся в срок или в последний час перед сроком; фигурными скобками обозначены явления, наблюдавшиеся между сроками (за 1-3 часа до срока); квадратными скобками обозначены град или гололедные отложения с указанием их диаметра в мм.
Облачность - указаны через наклонную черту общая и нижняя облачность в баллах и высота нижней границы облаков в метрах; квадратными скобками обозначены формы облаков: Ci - перистые, Cs - перисто-слоистые, Cc - перисто-кучевые, Ac - высококучевые, As - высокослоистые, Sc - слоисто-кучевые, Ns - слоисто-дождевые, Cu - кучевые, Cb - кучево-дождевые. Подробнее классификацию облаков см. в Атласе облаков (PDF).
T - Температура воздуха - температура, измеренная на высоте 2 м над землей.
Td - Температура точки росы - температура, при понижении до которой содержащийся в воздухе водяной пар достигнет насыщения.
f - Относительная влажность воздуха - влажноcть воздуха, измеренная на высоте 2 м над землей.
Te - Эффективная температура - температура, которую ощущает одетый по сезону человек в тени. Характеристика душности погоды. При расчете учитывается влияние влажности воздуха и скорости ветра на теплоощущения человека.
Tes - Эффективная температура на солнце - температура, которую ощущает человек, с поправкой на солнечный нагрев. Характеристика знойности погоды. Зависит от высоты солнца над горизонтом, облачности и скорости ветра. Ночью, в пасмурную погоду, а также при ветре 12 м/с и более поправка равна нулю.
P - Атмосферное давление - приведенное к уровню моря атмосферное давление.
Po - Атмосферное давление - измеренное на уровне метеостанции атмосферное давление.
Tmin - Минимальная температура - минимум температуры воздуха на высоте 2 м над землей.
Tmax - Максимальная температура - максимум температуры воздуха на высоте 2 м над землей.
R - Количество осадков - Количество выпавших осадков за период времени, мм. При наведении курсора мыши на число - период времени, за который выпало указанное количество осадков.
R24 - Количество осадков - Количество выпавших осадков за 24 часа, мм.
S - Снежный покров - Высота снежного покрова, см. При наведении курсора мыши на число - состояние снежного покрова и степень покрытия местности в баллах.